Regional Weather Roundup
Issued by NWS Green Bay, WI

Home | Current Version | Previous Version | Graphics & Text | Print | Product List | Glossary Off
Versions: 1 2 3 4 5 6 7 8 9 10 11 12 13 14 15 16 17 18 19 20 21 22 23 24 25 26 27 28 29 30 31 32 33 34 35 36 37 38 39 40 41 42 43 44 45 46 47 48 49 50

000
ASUS43 KGRB 010911
RWRGRB

NORTH-CENTRAL AND NORTHEAST WISCONSIN REGIONAL WEATHER ROUNDUP
NATIONAL WEATHER SERVICE GREEN BAY WI
400 AM CDT SUN MAY 01 2016

WIZ005-009-010>012-018-019-011000-
NORTH CENTRAL WISCONSIN

CITY           SKY/WX    TMP DP  RH WIND       PRES   REMARKS
IRONWOOD         N/A     34  32  93 N5        30.16S
MANITOWISH WTR MOCLDY    36  35  99 NE3       30.13S
ARBOR VITAE    PTCLDY    37  34  90 NE5       30.12S
EAGLE RIVER    CLOUDY    34  33  96 NE5       30.12S
LAND O LAKES   MOCLDY    36  34  93 NE6       30.13S
RHINELANDER    CLOUDY    36  32  85 VRB5      30.12R
PHILLIPS       PTCLDY    36  33  89 N7        30.12S
ANTIGO         CLOUDY    39  33  78 NE6       30.08S
TOMAHAWK       CLOUDY    37  32  82 N3        30.12R
MERRILL        PTCLDY    41  33  73 NE7       30.10S
$$

WIZ013-073-011000-
NORTHEAST WISCONSIN

CITY           SKY/WX    TMP DP  RH WIND       PRES   REMARKS
IRON MOUNTAIN  MOCLDY    37  32  82 NW6       30.09S
MARINETTE      CLOUDY    43  32  65 NE8       30.07S
OCONTO         CLOUDY    43  35  73 N3        30.07R
$$

WIZ017-030-035>037-045-011000-
CENTRAL WISCONSIN

CITY           SKY/WX    TMP DP  RH WIND       PRES   REMARKS
MEDFORD        PTCLDY    39  33  77 NE9       30.09R
WAUSAU         CLOUDY    45  31  58 NE5       30.07R
MOSINEE        CLOUDY    43  32  65 NE9       30.09S
MARSHFIELD     CLOUDY    45  31  58 NE9       30.07R
WISC RAPIDS    CLOUDY    46  29  51 E10       30.08R
STEVENS POINT  DRIZZLE   42  31  63 NE7       30.07F
WAUPACA        LGT RAIN  45  34  66 N6        30.07S
SHAWANO        CLOUDY    46  34  64 NE7       30.08S
CLINTONVILLE   CLOUDY    43  32  65 NE3       30.07S
WAUTOMA        NOT AVBL
$$

WIZ038-039-048-051-011000-
FOX VALLEY

CITY           SKY/WX    TMP DP  RH WIND       PRES   REMARKS
NWS GREEN BAY  CLOUDY    45  36  70 NE15      30.06R
APPLETON       CLOUDY    41  32  70 N8        30.04S
OSHKOSH        LGT RAIN  44  37  76 N14       30.04R
FOND DU LAC    LGT RAIN  44  38  79 NE16      30.03R
$$

WIZ022-050-052-011000-
EAST CENTRAL WISCONSIN

CITY           SKY/WX    TMP DP  RH WIND       PRES   REMARKS
EPHRAIM        CLOUDY    39  36  88 N6        30.06R
STURGEON BAY   CLOUDY    43  32  65 NE7       30.08S
MANITOWOC      LGT RAIN  42  38  85 N9G24     30.04S
SHEBOYGAN      CLOUDY    42  37  82 N10       30.02R
$$

LMZ563-521-522-541>543-011000-
LAKESHORE

STATION/POSITION TIME  TEMP    WIND        PRES    VSBY  WAVE
                       AIR SEA DIR/SP/G                  HT/PER
                 (UTC) (F)     (DEG/KT/KT) (MB)    (MI)  (FT/S)
SHEBOYGAN LKSHOR 0900   42      10/ 18/ 20 1017.4R
KEWAUNEE LKSHORE 0800   42      20/ 10/ 14 1016.8F
ALGOMA MARINA    0800           60/ 17/ 23   N/A
NORTHPORT PIER   0800   41     350/  8/  9 1018.6S
N MID LAKE BUOY  0850   40 39   20/ 12/ 14 1018.3F         1/ 4
CHAMBERS ISLAND  0800   41      10/ 12/ 16 1018.3
MENOMINEE LKSHOR 0800   44     360/ 11/ 13 1017.1F
$$




USA.gov is the U.S. government's official web portal to all federal, state and local government web resources and services.